Weather History for KEAT - December, 2013

Change the Weather History Date:

Monday, December 23, 2013

  Actual Average Record
Temperature  
Mean Temperature 35 °F 25 °F  
Max Temperature 41 °F 30 °F - ()
Min Temperature 29 °F 19 °F - ()
Degree Days  
Heating Degree Days 30 40  
Month to date heating degree days 919 897  
Since 1 July heating degree days 2760 2779  
Cooling Degree Days 0 0  
Month to date cooling degree days 0 0  
Year to date cooling degree days 383 249  
Moisture  
Dew Point 26 °F    
Average Humidity 77    
Maximum Humidity 93    
Minimum Humidity 53    
Precipitation  
Precipitation 0.07 in 0.09 in - ()
Month to date precipitation 0.67 1.90  
Year to date precipitation 12.97 16.45  
Snow  
Snow 0.00 in 0.60 in - ()
Month to date snowfall 3.4 11.9  
Since 1 July snowfall 6.4 19.8  
Snow Depth 0.00 in    
Sea Level Pressure  
Sea Level Pressure 30.20 in    
Wind  
Wind Speed 5 mph (NW)    
Max Wind Speed 33 mph    
Max Gust Speed 45 mph    
Visibility 7 miles    
Events Rain    
T = Trace of Precipitation, MM = Missing Value Source: NWS Daily Summary

Daily Weather History Graph

Daily Weather History Graph

Search for Another Location

Airport or City:

Trip Planner

Search our weather history database for the weather conditions in past years. The results will help you decide how hot, cold, wet, or windy it might be!

Date:

Astronomy

Dec. 23, 2013 Rise Set
Actual Time 7:46 AM PST 4:13 PM PST
Civil Twilight 7:10 AM PST 4:49 PM PST
Nautical Twilight 6:31 AM PST 5:28 PM PST
Astronomical Twilight 5:53 AM PST 6:06 PM PST
Moon 10:53 PM PST (12/23) 10:51 AM PST (12/23)
Length of Visible Light 9h 39m
Length of Day
8h 27m
Waning Gibbous, 67% of the Moon is Illuminated
Dec 23
Waning Gibbous
Dec 25
Last Quarter
Jan 1
New
Jan 7
First Quarter
Jan 15
Full

Hourly Weather History & Observations

Time (PST) Temp. Windchill Dew Point Humidity Pressure Visibility Wind Dir Wind Speed Gust Speed Precip Events Conditions
12:55 AM 26.1 °F - 23.0 °F 88% 30.28 in 7.0 mi Calm Calm - N/A   Clear
1:55 AM 26.1 °F 21.9 °F 21.9 °F 84% 30.28 in 7.0 mi NW 3.5 mph - N/A   Clear
2:55 AM 26.1 °F - 23.0 °F 88% 30.26 in 7.0 mi Calm Calm - N/A   Clear
3:55 AM 26.1 °F - 21.9 °F 84% 30.25 in 6.0 mi Calm Calm - N/A   Clear
4:55 AM 24.1 °F - 21.9 °F 91% 30.23 in 6.0 mi Calm Calm - N/A   Clear
5:55 AM 23.0 °F - 19.9 °F 88% 30.22 in 5.0 mi Calm Calm - N/A   Clear
6:55 AM 24.1 °F - 21.9 °F 91% 30.20 in 5.0 mi Calm Calm - N/A   Clear
7:55 AM 23.0 °F - 21.0 °F 92% 30.20 in 6.0 mi Calm Calm - N/A   Scattered Clouds
8:55 AM 24.1 °F - 21.9 °F 91% 30.19 in 2.5 mi Calm Calm - N/A   Clear
9:10 AM 23.0 °F 18.4 °F 21.2 °F 93% 30.15 in 4.0 mi NW 3.5 mph - N/A   Clear
9:55 AM 28.9 °F - 25.0 °F 85% 30.18 in 4.0 mi Calm Calm - N/A   Clear
10:55 AM 28.9 °F - 26.1 °F 89% 30.14 in 5.0 mi Calm Calm - N/A   Partly Cloudy
11:55 AM 32.0 °F - 26.1 °F 79% 30.11 in 7.0 mi Calm Calm - N/A   Clear
12:55 PM 34.0 °F 31.0 °F 26.1 °F 73% 30.05 in 8.0 mi SE 3.5 mph - N/A   Clear
1:55 PM 37.0 °F 33.3 °F 27.0 °F 67% 30.04 in 9.0 mi SSE 4.6 mph - N/A   Clear
2:55 PM 45.0 °F 34.7 °F 30.9 °F 58% 30.10 in 8.0 mi NNW 33.4 mph 44.9 mph N/A   Mostly Cloudy
3:02 PM 42.8 °F 32.3 °F 33.8 °F 70% 30.09 in 6.0 mi NW 29.9 mph 44.9 mph 0.01 in Rain Light Rain
3:15 PM 41.0 °F 31.1 °F 33.8 °F 76% 30.11 in 5.0 mi NW 23.0 mph 32.2 mph 0.04 in Rain Light Rain
3:25 PM 39.2 °F 30.2 °F 35.6 °F 87% 30.11 in 10.0 mi WNW 17.3 mph 28.8 mph 0.04 in Rain Light Rain
3:55 PM 37.9 °F 33.5 °F 34.0 °F 86% 30.14 in 10.0 mi NNW 5.8 mph - 0.04 in   Clear
4:55 PM 37.9 °F 32.7 °F 33.1 °F 83% 30.16 in 10.0 mi NNW 6.9 mph - N/A   Clear
5:55 PM 39.0 °F 31.8 °F 30.0 °F 70% 30.19 in 10.0 mi WNW 11.5 mph - N/A   Clear
6:55 PM 41.0 °F 33.9 °F 26.1 °F 55% 30.21 in 10.0 mi NW 12.7 mph - N/A   Clear
7:55 PM 41.0 °F 31.4 °F 26.1 °F 55% 30.24 in 10.0 mi WNW 21.9 mph - N/A   Clear
8:55 PM 41.0 °F 35.2 °F 25.0 °F 53% 30.28 in 10.0 mi NNW 9.2 mph - N/A   Clear
9:55 PM 39.9 °F 31.8 °F 26.1 °F 58% 30.32 in 10.0 mi NW 15.0 mph - N/A   Clear
10:55 PM 39.0 °F 34.0 °F 25.0 °F 57% 30.39 in 10.0 mi SSE 6.9 mph - N/A   Clear
11:55 PM 37.9 °F 32.7 °F 25.0 °F 60% 30.40 in 10.0 mi West 6.9 mph - N/A   Clear